| time (UTC) | temp F | wind direction | speed MPH | gust MPH | rain 1hr in | rain 24hr in | rain mn in | humidity % | barometer mb |
| 20260505082407 | 62 | 77 | 0.0 | 0.0 | 0.00 | 0.00 | 0.00 | 75 | 1015.1 |
| 20260505081810 | 62 | 76 | 1.0 | 2.0 | 0.00 | 0.00 | 0.00 | 74 | 1015.1 |
| 20260505081207 | 62 | 76 | 1.0 | 2.0 | 0.00 | 0.00 | 0.00 | 77 | 1015.0 |
| 20260505080607 | 63 | 76 | 0.0 | 2.0 | 0.00 | 0.00 | 0.00 | 78 | 1015.1 |
| 20260505075407 | 62 | 76 | 0.0 | 2.0 | 0.00 | 0.00 | 0.00 | 78 | 1015.1 |
| 20260505074807 | 62 | 77 | 1.0 | 3.0 | 0.00 | 0.00 | 0.00 | 78 | 1015.0 |
| 20260505074207 | 63 | 77 | 0.0 | 1.0 | 0.00 | 0.00 | 0.00 | 79 | 1015.0 |
| 20260505073607 | 62 | 77 | 0.0 | 2.0 | 0.00 | 0.00 | 0.00 | 79 | 1015.0 |
| 20260505073007 | 62 | 73 | 1.0 | 3.0 | 0.00 | 0.00 | 0.00 | 82 | 1014.9 |
| 20260505072410 | 62 | 69 | 0.0 | 1.0 | 0.00 | 0.00 | 0.00 | 84 | 1014.9 |
| 20260505071807 | 62 | 84 | 3.0 | 4.0 | 0.00 | 0.00 | 0.00 | 84 | 1014.9 |
| 20260505071207 | 62 | 76 | 2.0 | 4.0 | 0.00 | 0.00 | 0.00 | 84 | 1014.7 |
| 20260505070607 | 62 | 63 | 2.0 | 4.0 | 0.00 | 0.00 | 0.00 | 84 | 1014.6 |
| 20260505065407 | 62 | 68 | 4.0 | 5.0 | 0.00 | 0.00 | 0.00 | 83 | 1014.6 |
| 20260505064810 | 62 | 78 | 3.0 | 5.0 | 0.00 | 0.00 | 0.00 | 83 | 1014.6 |
| 20260505064207 | 62 | 75 | 4.0 | 5.0 | 0.00 | 0.00 | 0.00 | 83 | 1014.6 |
| 20260505063607 | 62 | 64 | 4.0 | 5.0 | 0.00 | 0.00 | 0.00 | 83 | 1014.6 |
| 20260505063008 | 62 | 68 | 3.0 | 5.0 | 0.00 | 0.00 | 0.00 | 83 | 1014.6 |
| 20260505062407 | 62 | 71 | 4.0 | 5.0 | 0.00 | 0.00 | 0.00 | 83 | 1014.5 |
| 20260505061807 | 62 | 67 | 3.0 | 4.0 | 0.00 | 0.00 | 0.00 | 84 | 1014.6 |
| 20260505061209 | 61 | 65 | 3.0 | 5.0 | 0.00 | 0.00 | 0.00 | 84 | 1014.5 |
| 20260505060607 | 61 | 71 | 4.0 | 6.0 | 0.00 | 0.00 | 0.00 | 84 | 1014.6 |
| 20260505055407 | 62 | 69 | 2.0 | 4.0 | 0.00 | 0.00 | 0.00 | 84 | 1014.3 |
| 20260505054807 | 62 | 73 | 4.0 | 5.0 | 0.00 | 0.00 | 0.00 | 85 | 1014.2 |
| 20260505054208 | 61 | 65 | 4.0 | 7.0 | 0.00 | 0.00 | 0.00 | 85 | 1014.1 |
| 20260505053607 | 62 | 57 | 3.0 | 5.0 | 0.00 | 0.00 | 0.00 | 85 | 1014.0 |
| 20260505052408 | 61 | 64 | 6.0 | 9.0 | 0.00 | 0.00 | 0.00 | 86 | 1014.0 |
| 20260505051807 | 61 | 66 | 4.0 | 5.0 | 0.00 | 0.00 | 0.00 | 86 | 1014.1 |
| 20260505051207 | 61 | 65 | 3.0 | 5.0 | 0.00 | 0.00 | 0.00 | 87 | 1014.0 |
| 20260505050607 | 61 | 60 | 4.0 | 6.0 | 0.00 | 0.00 | 0.00 | 87 | 1014.0 |
| 20260505041207 | 60 | 74 | 4.0 | 5.0 | 0.00 | 0.00 | 0.00 | 92 | 1014.0 |
| 20260505040607 | 60 | 61 | 4.0 | 7.0 | 0.00 | 0.00 | 0.00 | 92 | 1014.0 |
| 20260505035407 | 60 | 58 | 3.0 | 4.0 | 0.00 | 0.00 | 0.00 | 92 | 1014.0 |
| 20260505034807 | 60 | 63 | 2.0 | 5.0 | 0.00 | 0.00 | 0.00 | 92 | 1014.0 |
| 20260505034207 | 60 | 60 | 4.0 | 6.0 | 0.00 | 0.00 | 0.00 | 93 | 1014.0 |
| 20260505033607 | 60 | 59 | 3.0 | 4.0 | 0.00 | 0.00 | 0.00 | 93 | 1013.9 |
| 20260505033010 | 60 | 62 | 3.0 | 5.0 | 0.00 | 0.00 | 0.00 | 93 | 1014.0 |
| 20260505032407 | 60 | 63 | 3.0 | 5.0 | 0.00 | 0.00 | 0.00 | 93 | 1014.1 |
| 20260505031810 | 60 | 37 | 2.0 | 3.0 | 0.00 | 0.00 | 0.00 | 93 | 1014.1 |
| 20260505031207 | 60 | 63 | 3.0 | 6.0 | 0.00 | 0.00 | 0.00 | 93 | 1014.2 |
| 20260505030609 | 60 | 64 | 2.0 | 3.0 | 0.00 | 0.00 | 0.00 | 93 | 1014.3 |
| 20260505025407 | 60 | 69 | 3.0 | 5.0 | 0.00 | 0.00 | 0.00 | 92 | 1014.3 |
| 20260505024810 | 60 | 64 | 2.0 | 4.0 | 0.00 | 0.00 | 0.00 | 92 | 1014.3 |
| 20260505024208 | 60 | 72 | 3.0 | 4.0 | 0.00 | 0.00 | 0.00 | 92 | 1014.3 |
| 20260505023607 | 60 | 66 | 2.0 | 5.0 | 0.00 | 0.00 | 0.00 | 92 | 1014.3 |
| 20260505022408 | 59 | 67 | 1.0 | 2.0 | 0.00 | 0.00 | 0.00 | 92 | 1014.4 |
| 20260505021808 | 59 | 69 | 4.0 | 5.0 | 0.00 | 0.00 | 0.00 | 92 | 1014.5 |
| 20260505021207 | 59 | 70 | 3.0 | 5.0 | 0.00 | 0.00 | 0.00 | 91 | 1014.6 |
| 20260505020607 | 59 | 67 | 3.0 | 5.0 | 0.00 | 0.00 | 0.00 | 91 | 1014.7 |
| 20260505015407 | 59 | 68 | 2.0 | 4.0 | 0.00 | 0.00 | 0.00 | 90 | 1014.7 |
| 20260505014807 | 59 | 67 | 3.0 | 4.0 | 0.00 | 0.00 | 0.00 | 89 | 1014.8 |
| 20260505014210 | 59 | 71 | 2.0 | 3.0 | 0.00 | 0.00 | 0.00 | 87 | 1014.8 |
| 20260505013609 | 59 | 76 | 2.0 | 4.0 | 0.00 | 0.00 | 0.00 | 87 | 1014.7 |
| 20260505012410 | 59 | 70 | 2.0 | 3.0 | 0.00 | 0.00 | 0.00 | 86 | 1014.7 |
| 20260505011810 | 59 | 74 | 3.0 | 4.0 | 0.00 | 0.00 | 0.00 | 85 | 1014.8 |
| 20260505011207 | 59 | 69 | 3.0 | 5.0 | 0.00 | 0.00 | 0.00 | 85 | 1014.9 |
| 20260505010607 | 59 | 67 | 2.0 | 5.0 | 0.00 | 0.00 | 0.00 | 86 | 1014.9 |
| 20260505005407 | 59 | 65 | 3.0 | 5.0 | 0.00 | 0.00 | 0.00 | 86 | 1015.3 |
| 20260505004807 | 59 | 70 | 2.0 | 3.0 | 0.00 | 0.00 | 0.00 | 85 | 1015.4 |
| 20260505004207 | 59 | 68 | 2.0 | 3.0 | 0.00 | 0.00 | 0.00 | 85 | 1015.5 |
| 20260505003610 | 59 | 68 | 2.0 | 3.0 | 0.00 | 0.00 | 0.00 | 84 | 1015.6 |
| 20260505002408 | 59 | 68 | 2.0 | 3.0 | 0.00 | 0.00 | 0.00 | 84 | 1015.5 |
| 20260505001808 | 59 | 58 | 2.0 | 2.0 | 0.00 | 0.00 | 0.00 | 84 | 1015.6 |
| 20260505001209 | 59 | 54 | 3.0 | 4.0 | 0.00 | 0.00 | 0.00 | 84 | 1015.6 |
| 20260505000607 | 59 | 69 | 3.0 | 4.0 | 0.00 | 0.00 | 0.00 | 83 | 1015.7 |
| 20260504235410 | 60 | 65 | 3.0 | 5.0 | 0.00 | 0.00 | 0.00 | 82 | 1015.8 |
| 20260504235235 | 60 | 68 | 3.0 | 4.0 | 0.00 | 0.00 | 0.00 | 81 | 1015.8 |
| 20260504234855 | 60 | 72 | 3.0 | 4.0 | 0.00 | 0.00 | 0.00 | 81 | 1015.8 |
| 20260504234807 | 60 | 72 | 3.0 | 4.0 | 0.00 | 0.00 | 0.00 | 81 | 1015.8 |
| 20260504234209 | 60 | 68 | 3.0 | 4.0 | 0.00 | 0.00 | 0.00 | 81 | 1015.8 |
| 20260504233607 | 60 | 79 | 3.0 | 4.0 | 0.00 | 0.00 | 0.00 | 80 | 1015.9 |
| 20260504233007 | 60 | 73 | 3.0 | 4.0 | 0.00 | 0.00 | 0.00 | 79 | 1016.0 |
| 20260504232453 | 61 | 70 | 3.0 | 5.0 | 0.00 | 0.00 | 0.00 | 76 | 1016.1 |
| 20260504232409 | 60 | 67 | 3.0 | 4.0 | 0.00 | 0.00 | 0.00 | 78 | 1016.0 |
| 20260504231810 | 61 | 70 | 3.0 | 5.0 | 0.00 | 0.00 | 0.00 | 76 | 1016.1 |
| 20260504231207 | 61 | 74 | 3.0 | 5.0 | 0.00 | 0.00 | 0.00 | 76 | 1016.2 |
| 20260504230609 | 61 | 63 | 2.0 | 4.0 | 0.00 | 0.00 | 0.00 | 75 | 1016.3 |
| 20260504225407 | 61 | 67 | 4.0 | 5.0 | 0.00 | 0.00 | 0.00 | 75 | 1016.4 |
| 20260504224807 | 61 | 68 | 4.0 | 5.0 | 0.00 | 0.00 | 0.00 | 74 | 1016.5 |
| 20260504224210 | 62 | 70 | 4.0 | 5.0 | 0.00 | 0.00 | 0.00 | 75 | 1016.5 |
| 20260504223608 | 62 | 65 | 3.0 | 4.0 | 0.00 | 0.00 | 0.00 | 75 | 1016.5 |
| 20260504223010 | 62 | 70 | 3.0 | 5.0 | 0.00 | 0.00 | 0.00 | 75 | 1016.5 |
| 20260504222410 | 62 | 67 | 3.0 | 5.0 | 0.00 | 0.00 | 0.00 | 74 | 1016.6 |
| 20260504221808 | 62 | 60 | 3.0 | 5.0 | 0.00 | 0.00 | 0.00 | 74 | 1016.6 |
| 20260504221208 | 62 | 64 | 3.0 | 5.0 | 0.00 | 0.00 | 0.00 | 73 | 1016.5 |
| 20260504220607 | 62 | 63 | 4.0 | 5.0 | 0.00 | 0.00 | 0.00 | 72 | 1016.6 |
| 20260504215407 | 62 | 62 | 3.0 | 5.0 | 0.00 | 0.00 | 0.00 | 71 | 1016.7 |
| 20260504214808 | 62 | 65 | 3.0 | 4.0 | 0.00 | 0.00 | 0.00 | 70 | 1016.7 |
| 20260504214207 | 62 | 62 | 3.0 | 5.0 | 0.00 | 0.00 | 0.00 | 70 | 1016.6 |
| 20260504213610 | 62 | 60 | 3.0 | 4.0 | 0.00 | 0.00 | 0.00 | 69 | 1016.6 |
| 20260504213007 | 62 | 57 | 1.0 | 2.0 | 0.00 | 0.00 | 0.00 | 69 | 1016.7 |
| 20260504212410 | 63 | 57 | 1.0 | 2.0 | 0.00 | 0.00 | 0.00 | 69 | 1016.6 |
| 20260504211807 | 63 | 66 | 2.0 | 3.0 | 0.00 | 0.00 | 0.00 | 68 | 1016.6 |
| 20260504211210 | 63 | 71 | 2.0 | 4.0 | 0.00 | 0.00 | 0.00 | 68 | 1016.7 |
| 20260504210608 | 63 | 59 | 3.0 | 5.0 | 0.00 | 0.00 | 0.00 | 68 | 1016.6 |
| 20260504205407 | 63 | 53 | 1.0 | 2.0 | 0.00 | 0.00 | 0.00 | 68 | 1016.6 |
| 20260504204807 | 63 | 306 | 1.0 | 3.0 | 0.00 | 0.00 | 0.00 | 68 | 1016.6 |
| 20260504204207 | 64 | 66 | 1.0 | 2.0 | 0.00 | 0.00 | 0.00 | 66 | 1016.6 |
| 20260504203607 | 64 | 108 | 0.0 | 0.0 | 0.00 | 0.00 | 0.00 | 65 | 1016.6 |
| 20260504203009 | 64 | 108 | 0.0 | 0.0 | 0.00 | 0.00 | 0.00 | 65 | 1016.4 |
| 20260504202407 | 65 | 108 | 1.0 | 2.0 | 0.00 | 0.00 | 0.00 | 64 | 1016.4 |
| 20260504201807 | 65 | 108 | 2.0 | 2.0 | 0.00 | 0.00 | 0.00 | 63 | 1016.3 |
| 20260504201207 | 65 | 108 | 2.0 | 2.0 | 0.00 | 0.00 | 0.00 | 63 | 1016.3 |
| 20260504200610 | 65 | 108 | 2.0 | 2.0 | 0.00 | 0.00 | 0.00 | 62 | 1016.3 |
| 20260504195409 | 65 | 108 | 2.0 | 2.0 | 0.00 | 0.00 | 0.00 | 61 | 1016.4 |
| 20260504194809 | 66 | 108 | 1.0 | 2.0 | 0.00 | 0.00 | 0.00 | 61 | 1016.4 |
| 20260504194207 | 66 | 108 | 0.0 | 0.0 | 0.00 | 0.00 | 0.00 | 61 | 1016.3 |
| 20260504193608 | 65 | 108 | 0.0 | 0.0 | 0.00 | 0.00 | 0.00 | 61 | 1016.3 |
| 20260504193007 | 65 | 108 | 0.0 | 0.0 | 0.00 | 0.00 | 0.00 | 61 | 1016.2 |
| 20260504192409 | 66 | 108 | 0.0 | 2.0 | 0.00 | 0.00 | 0.00 | 62 | 1016.2 |
| 20260504191810 | 66 | 108 | 1.0 | 2.0 | 0.00 | 0.00 | 0.00 | 62 | 1016.2 |
| 20260504191208 | 66 | 103 | 1.0 | 2.0 | 0.00 | 0.00 | 0.00 | 62 | 1016.1 |
| 20260504190607 | 66 | 102 | 1.0 | 2.0 | 0.00 | 0.00 | 0.00 | 64 | 1016.1 |
| 20260504185410 | 67 | 90 | 1.0 | 2.0 | 0.00 | 0.00 | 0.00 | 64 | 1015.9 |
| 20260504184807 | 67 | 97 | 1.0 | 2.0 | 0.00 | 0.00 | 0.00 | 65 | 1015.8 |
| 20260504184207 | 67 | 111 | 2.0 | 2.0 | 0.00 | 0.00 | 0.00 | 67 | 1015.9 |
| 20260504183607 | 67 | 91 | 1.0 | 2.0 | 0.00 | 0.00 | 0.00 | 68 | 1015.8 |
| 20260504183010 | 67 | 61 | 2.0 | 3.0 | 0.00 | 0.00 | 0.00 | 68 | 1015.8 |
| 20260504182408 | 67 | 70 | 2.0 | 2.0 | 0.00 | 0.00 | 0.00 | 67 | 1015.8 |
| 20260504181807 | 68 | 145 | 1.0 | 2.0 | 0.00 | 0.00 | 0.00 | 66 | 1015.8 |
| 20260504181207 | 68 | 147 | 1.0 | 2.0 | 0.00 | 0.00 | 0.00 | 66 | 1015.8 |
| 20260504180610 | 68 | 138 | 2.0 | 3.0 | 0.00 | 0.00 | 0.00 | 65 | 1015.7 |
| 20260504175408 | 69 | 134 | 2.0 | 3.0 | 0.00 | 0.00 | 0.00 | 64 | 1015.5 |
| 20260504174807 | 69 | 97 | 1.0 | 2.0 | 0.00 | 0.00 | 0.00 | 63 | 1015.5 |
| 20260504174207 | 70 | 87 | 2.0 | 3.0 | 0.00 | 0.00 | 0.00 | 61 | 1015.6 |
| 20260504173607 | 70 | 110 | 2.0 | 2.0 | 0.00 | 0.00 | 0.00 | 60 | 1015.5 |
| 20260504173007 | 70 | 81 | 2.0 | 3.0 | 0.00 | 0.00 | 0.00 | 59 | 1015.6 |
| 20260504172409 | 70 | 88 | 2.0 | 3.0 | 0.00 | 0.00 | 0.00 | 59 | 1015.6 |
| 20260504171807 | 70 | 85 | 3.0 | 4.0 | 0.00 | 0.00 | 0.00 | 59 | 1015.6 |
| 20260504171207 | 71 | 119 | 3.0 | 4.0 | 0.00 | 0.00 | 0.00 | 58 | 1015.6 |
| 20260504170608 | 71 | 128 | 2.0 | 3.0 | 0.00 | 0.00 | 0.00 | 56 | 1015.7 |
| 20260504150607 | 76 | 111 | 3.0 | 5.0 | 0.00 | 0.00 | 0.00 | 55 | 1015.8 |
| 20260504141207 | 76 | 96 | 2.0 | 2.0 | 0.00 | 0.00 | 0.00 | 49 | 1016.1 |
| 20260504140608 | 76 | 84 | 2.0 | 5.0 | 0.00 | 0.00 | 0.00 | 50 | 1016.1 |
| 20260504130610 | 78 | 59 | 1.0 | 2.0 | 0.00 | 0.00 | 0.00 | 47 | 1016.5 |
| 20260504110610 | 75 | 24 | 2.0 | 6.0 | 0.00 | 0.00 | 0.00 | 51 | 1017.4 |
| 20260504100607 | 72 | 69 | 3.0 | 4.0 | 0.00 | 0.00 | 0.00 | 51 | 1017.9 |